Hourly Data Report for June 11, 2020

TORONTO CITY
ONTARIO
Current Station Operator: ECCC - MSC

43°40'00.000" N
79°24'00.000" W
112.50 m
6158355
71508
XTO

Download Data

Hourly Data (June 2020)
Hourly Data Report for June 11, 2020
TIME
LST
Temp Definition
°C
Dew Point Definition
°C
Rel Hum Definition
%
Precip. Amount Definition
mm

Wind Dir Definition
10's deg

Wind Spd Definition
km/h
Visibility Definition
km
Stn Press Definition
kPa
Hmdx Definition


Wind Chill Definition


Weather Definition


00:00 18.6 16.6 88 1.5       99.01     LegendNANA
01:00 18.9 17.1 90 0.0       99.02     LegendNANA
02:00 18.9 16.8 88 0.0       99.02     LegendNANA
03:00 18.2 15.7 86 0.0       99.05     LegendNANA
04:00 17.8 14.4 81 0.0       99.12     LegendNANA
05:00 18.2 13.8 76 0.0       99.20     LegendNANA
06:00 18.5 14.1 75 0.0       99.33     LegendNANA
07:00 17.2 11.9 71 0.0       99.57     LegendNANA
08:00 17.8 7.5 51 0.0       99.75     LegendNANA
09:00 19.2 8.6 50 0.0       99.89     LegendNANA
10:00 20.7 9.3 48 0.0       99.97     LegendNANA
11:00 20.8 8.7 46 0.0       100.06     LegendNANA
12:00 21.7 8.3 42 0.0       100.11     LegendNANA
13:00 22.2 8.3 41 0.0       100.13     LegendNANA
14:00 22.6 8.6 41 0.0       100.12     LegendNANA
15:00 24.3 8.1 36 0.0       100.13 25   LegendNANA
16:00 24.1 8.2 36 0.0       100.15 25   LegendNANA
17:00 23.5 7.7 36 0.0       100.21     LegendNANA
18:00 22.7 6.9 36 0.0       100.24     LegendNANA
19:00 22.4 6.6 36 0.0       100.30     LegendNANA
20:00 21.5 7.2 40 0.0       100.31     LegendNANA
21:00 20.0 8.6 48 0.0       100.35     LegendNANA
22:00 19.4 8.6 50 0.0       100.33     LegendNANA
23:00 18.3 8.9 54 0.0       100.32     LegendNANA

Notes on Data Quality.

Legend

  • E = Estimated
  • M = Missing
  • NA = Not Available*
  • [empty] = Indicates an unobserved value
Date modified: